NSZ4379 ESSA-LGRP

Flight info

Callsign NSZ4379
Flight time N/A
Altitude 33000
Route BABAP T316 NEPVA DCT OLANU/N0446F340 DCT PENOR/N0440F330 N133 IRLUN DCT PENEX/N0443F350 DCT NUBLI DCT ORTEB DCT LENOV DCT NARKA DCT ORA DCT GANNA DCT SODGO DCT OVDOT DCT LOMOS DCT WAK DCT NIKTI DCT STINO DCT MES UN139 LURUS UL995 CODIC
Aircraft B738/M-SDE2E3GHIJ1LRWXY/LB1

Departure

Time 2026-05-04 08:54
Airport Stockholm-Arlanda Airport (ESSA)

Arrival

Time N/A
Airport Rhodes International Airport "Diagoras" (LGRP)
Time Latitude Longitude Altitude Speed Heading
2026-05-04 08:31 59.65146 17.92699 110 ft 0 kts 191°
2026-05-04 08:33 59.65147 17.92699 110 ft 0 kts 190°
2026-05-04 08:44 59.65149 17.92699 111 ft 2 kts 190°
2026-05-04 08:46 59.65250 17.92738 109 ft 0 kts 190°
2026-05-04 08:47 59.65244 17.92734 110 ft 3 kts 199°
2026-05-04 08:48 59.65242 17.92674 111 ft 7 kts 283°
2026-05-04 08:48 59.65260 17.92570 109 ft 9 kts 290°
2026-05-04 08:48 59.65281 17.92456 110 ft 9 kts 290°
2026-05-04 08:48 59.65304 17.92330 105 ft 11 kts 292°
2026-05-04 08:49 59.65378 17.92281 103 ft 13 kts
2026-05-04 08:50 59.65999 17.92505 108 ft 14 kts 11°
2026-05-04 08:50 59.66094 17.92540 110 ft 14 kts 11°
2026-05-04 08:51 59.66209 17.92582 113 ft 23 kts 10°
2026-05-04 08:51 59.66393 17.92648 119 ft 20 kts 10°
2026-05-04 08:51 59.66524 17.92607 123 ft 19 kts 339°
2026-05-04 08:51 59.66617 17.92506 124 ft 12 kts 293°
2026-05-04 08:52 59.66604 17.92373 121 ft 8 kts 224°
2026-05-04 08:52 59.66553 17.92345 122 ft 8 kts 191°
2026-05-04 08:52 59.66393 17.92289 119 ft 54 kts 189°
2026-05-04 08:52 59.65782 17.92067 110 ft 122 kts 190°
2026-05-04 08:53 59.64765 17.91690 138 ft 172 kts 191°
2026-05-04 08:54 59.55511 17.92555 4192 ft 241 kts 135°
2026-05-04 08:55 59.54499 17.95321 4539 ft 265 kts 114°
2026-05-04 08:55 59.53925 17.98902 4998 ft 280 kts 107°
2026-05-04 08:55 59.53394 18.02625 5729 ft 284 kts 107°
2026-05-04 08:55 59.52843 18.06371 6507 ft 286 kts 108°
2026-05-04 08:57 59.42274 18.22104 10273 ft 336 kts 165°
2026-05-04 09:01 59.08700 18.45655 18698 ft 380 kts 167°
2026-05-04 09:01 59.06197 18.47394 19173 ft 384 kts 167°
2026-05-04 09:01 59.03674 18.49146 19641 ft 386 kts 167°
2026-05-04 09:01 59.01137 18.50907 20129 ft 389 kts 167°
2026-05-04 09:02 58.98581 18.52675 20601 ft 391 kts 167°
2026-05-04 09:02 58.96003 18.54420 21058 ft 392 kts 170°
2026-05-04 09:02 58.93353 18.55324 21485 ft 384 kts 184°
2026-05-04 09:02 58.90709 18.55098 21955 ft 379 kts 194°
2026-05-04 09:03 58.88168 18.53915 22401 ft 376 kts 202°
2026-05-04 09:03 58.85665 18.52383 22821 ft 378 kts 202°
2026-05-04 09:03 58.83148 18.50822 23213 ft 381 kts 202°
2026-05-04 09:03 58.80617 18.49257 23594 ft 383 kts 202°
2026-05-04 09:04 58.78073 18.47699 24006 ft 384 kts 202°
2026-05-04 09:04 58.75524 18.46151 24417 ft 384 kts 202°
2026-05-04 09:04 58.72966 18.44608 24798 ft 386 kts 202°
2026-05-04 09:04 58.70402 18.43069 25160 ft 387 kts 202°
2026-05-04 09:05 58.67826 18.41528 25522 ft 388 kts 202°
2026-05-04 09:05 58.65241 18.39986 25873 ft 390 kts 202°
2026-05-04 09:05 58.62644 18.38440 26226 ft 391 kts 202°
2026-05-04 09:05 58.60040 18.36893 26577 ft 392 kts 202°
2026-05-04 09:06 58.57429 18.35343 26916 ft 393 kts 202°
2026-05-04 09:07 58.38948 18.24447 29095 ft 401 kts 202°
2026-05-04 09:08 58.36281 18.22886 29507 ft 400 kts 202°
2026-05-04 09:08 58.33637 18.21342 29959 ft 397 kts 202°
2026-05-04 09:08 58.31001 18.19804 30261 ft 396 kts 202°
2026-05-04 09:08 58.28359 18.18263 30438 ft 397 kts 202°
2026-05-04 09:09 58.25749 18.16742 30692 ft 398 kts 202°
2026-05-04 09:09 58.23106 18.15205 30957 ft 398 kts 202°
2026-05-04 09:09 58.20459 18.13668 31193 ft 398 kts 202°
2026-05-04 09:09 58.17810 18.12133 31429 ft 399 kts 202°
2026-05-04 09:10 58.15156 18.10597 31687 ft 399 kts 201°
2026-05-04 09:10 58.12499 18.09062 31933 ft 399 kts 201°
2026-05-04 09:10 58.09845 18.07530 32163 ft 400 kts 201°
2026-05-04 09:10 58.07183 18.05998 32403 ft 400 kts 201°
2026-05-04 09:11 58.04524 18.04469 32641 ft 400 kts 201°
2026-05-04 09:11 58.01860 18.02939 32818 ft 401 kts 201°
2026-05-04 09:11 57.99184 18.01404 33017 ft 402 kts 201°
2026-05-04 09:11 57.96515 17.99877 33259 ft 401 kts 201°
2026-05-04 09:12 57.93841 17.98349 33492 ft 401 kts 201°
2026-05-04 09:12 57.91166 17.96823 33689 ft 402 kts 201°
2026-05-04 09:14 57.72299 17.86124 34736 ft 406 kts 201°
2026-05-04 09:14 57.66857 17.83058 34768 ft 409 kts 201°
2026-05-04 09:15 57.61422 17.80010 34767 ft 406 kts 201°
2026-05-04 09:15 57.56024 17.76989 34770 ft 404 kts 201°
2026-05-04 09:17 57.31370 17.66916 34785 ft 407 kts 194°
2026-05-04 09:18 57.25783 17.65174 34788 ft 408 kts 194°
2026-05-04 09:18 57.20211 17.63419 34782 ft 409 kts 195°
2026-05-04 09:19 57.14579 17.61644 34788 ft 411 kts 195°
2026-05-04 09:19 57.08925 17.59867 34791 ft 413 kts 195°
2026-05-04 09:20 57.03255 17.58091 34792 ft 414 kts 195°
2026-05-04 09:20 56.97570 17.56316 34792 ft 415 kts 194°
2026-05-04 09:21 56.91879 17.54546 34789 ft 415 kts 195°
2026-05-04 09:21 56.86192 17.52782 34793 ft 414 kts 195°
2026-05-04 09:22 56.80503 17.51022 34794 ft 414 kts 195°
2026-05-04 09:22 56.74827 17.49272 34799 ft 414 kts 195°
2026-05-04 09:23 56.69159 17.47530 34769 ft 413 kts 195°
2026-05-04 09:23 56.63502 17.45797 34791 ft 412 kts 195°
2026-05-04 09:25 56.41015 17.38955 34797 ft 410 kts 195°
2026-05-04 09:26 56.35397 17.37258 34809 ft 409 kts 195°
2026-05-04 09:26 56.29781 17.35567 34812 ft 409 kts 195°
2026-05-04 09:27 56.24165 17.33881 34822 ft 409 kts 195°
2026-05-04 09:27 56.18540 17.32198 34822 ft 410 kts 195°
2026-05-04 09:28 56.12915 17.30520 34819 ft 410 kts 195°
2026-05-04 09:28 56.07293 17.28848 34803 ft 410 kts 195°
2026-05-04 09:29 56.01671 17.27180 34821 ft 410 kts 195°
2026-05-04 09:29 55.96079 17.25526 34836 ft 410 kts 195°
2026-05-04 09:30 55.90444 17.23864 34837 ft 411 kts 195°
2026-05-04 09:30 55.84805 17.22206 34832 ft 411 kts 195°
2026-05-04 09:31 55.79147 17.20547 34845 ft 412 kts 195°
2026-05-04 09:31 55.73484 17.18891 34856 ft 413 kts 195°
2026-05-04 09:32 55.67808 17.17280 34852 ft 416 kts 191°
2026-05-04 09:34 55.48871 17.28191 34869 ft 442 kts 162°
2026-05-04 09:34 55.46078 17.30478 34868 ft 442 kts 162°
2026-05-04 09:34 55.40486 17.34991 34874 ft 442 kts 162°
2026-05-04 09:35 55.34892 17.39463 34882 ft 442 kts 162°
2026-05-04 09:35 55.29308 17.43916 34876 ft 440 kts 162°
2026-05-04 09:37 55.06955 17.61305 34902 ft 439 kts 163°
2026-05-04 09:38 55.01359 17.65581 34888 ft 439 kts 163°
2026-05-04 09:38 54.95768 17.69856 34900 ft 439 kts 162°
2026-05-04 09:39 54.90205 17.74255 34901 ft 439 kts 161°
2026-05-04 09:39 54.84636 17.78666 34905 ft 439 kts 162°
2026-05-04 09:40 54.79064 17.83041 34908 ft 440 kts 162°
2026-05-04 09:40 54.73487 17.87383 34907 ft 440 kts 162°
2026-05-04 09:42 54.51140 18.04646 34905 ft 441 kts 162°
2026-05-04 09:43 54.45547 18.08937 34910 ft 440 kts 162°
2026-05-04 09:43 54.39961 18.13210 34892 ft 439 kts 162°
2026-05-04 09:44 54.34387 18.17462 34909 ft 438 kts 162°
2026-05-04 09:46 54.12111 18.34184 34903 ft 436 kts 162°
2026-05-04 09:46 54.06554 18.38318 34904 ft 436 kts 162°
2026-05-04 09:47 54.00988 18.42447 34911 ft 436 kts 162°
2026-05-04 09:49 53.78712 18.58856 34899 ft 436 kts 162°
2026-05-04 09:51 53.58858 18.70794 34933 ft 434 kts 167°
2026-05-04 09:51 53.53126 18.74030 34946 ft 435 kts 167°
2026-05-04 09:52 53.47388 18.77280 34935 ft 436 kts 166°
2026-05-04 09:52 53.41636 18.80533 34950 ft 436 kts 166°
2026-05-04 09:53 53.35884 18.83774 34929 ft 437 kts 166°
2026-05-04 09:53 53.30125 18.87011 34950 ft 437 kts 166°
2026-05-04 09:54 53.24352 18.90246 34953 ft 437 kts 166°
2026-05-04 09:54 53.18580 18.93471 34952 ft 437 kts 166°
2026-05-04 09:55 53.12811 18.96685 34966 ft 437 kts 166°
2026-05-04 09:55 53.07035 18.99894 34974 ft 438 kts 166°
2026-05-04 09:56 53.01255 19.03096 34960 ft 438 kts 166°
2026-05-04 09:56 52.95477 19.06288 34956 ft 438 kts 166°
2026-05-04 09:57 52.89693 19.09473 34963 ft 438 kts 165°
2026-05-04 09:57 52.83911 19.12650 34974 ft 438 kts 165°
2026-05-04 09:58 52.78126 19.15820 34975 ft 438 kts 165°
2026-05-04 09:58 52.72344 19.18978 34978 ft 438 kts 165°
2026-05-04 10:00 52.49168 19.31444 34974 ft 439 kts 166°
2026-05-04 10:04 52.08276 19.52479 34986 ft 442 kts 165°
2026-05-04 10:04 52.02406 19.55470 34999 ft 442 kts 166°
2026-05-04 10:05 51.96542 19.58450 35002 ft 442 kts 166°
2026-05-04 10:05 51.90675 19.61423 35004 ft 442 kts 166°
2026-05-04 10:06 51.84803 19.64391 35012 ft 442 kts 166°
2026-05-04 10:06 51.78937 19.67348 35011 ft 442 kts 166°
2026-05-04 10:08 51.58443 19.77617 35004 ft 442 kts 165°
2026-05-04 10:08 51.52565 19.80541 35001 ft 443 kts 165°
2026-05-04 10:09 51.46673 19.83467 35008 ft 444 kts 165°
2026-05-04 10:09 51.40776 19.86390 35010 ft 445 kts 165°
2026-05-04 10:10 51.34858 19.89322 35020 ft 446 kts 165°
2026-05-04 10:10 51.28980 19.92532 35007 ft 447 kts 163°
2026-05-04 10:11 51.23112 19.95861 35011 ft 448 kts 162°
2026-05-04 10:11 51.17233 19.99194 35018 ft 449 kts 163°
2026-05-04 10:12 51.11332 20.02452 35031 ft 449 kts 163°
2026-05-04 10:12 51.05416 20.05691 35024 ft 450 kts 163°
2026-05-04 10:13 50.99501 20.08956 35022 ft 450 kts 163°
2026-05-04 10:13 50.93576 20.12203 35038 ft 450 kts 163°
2026-05-04 10:14 50.87655 20.15436 35027 ft 451 kts 163°
2026-05-04 10:16 50.63872 20.28346 35046 ft 454 kts 162°
2026-05-04 10:16 50.57888 20.31575 35056 ft 455 kts 162°
2026-05-04 10:17 50.51894 20.34800 35057 ft 455 kts 162°
2026-05-04 10:19 50.27895 20.47626 35062 ft 455 kts 162°
2026-05-04 10:19 50.21897 20.50811 35066 ft 455 kts 162°
2026-05-04 10:20 50.15902 20.53987 35063 ft 455 kts 162°
2026-05-04 10:20 50.09908 20.57155 35076 ft 454 kts 161°
2026-05-04 10:21 50.03970 20.60530 35069 ft 454 kts 159°
2026-05-04 10:21 49.99061 20.63432 35072 ft 454 kts 159°
2026-05-04 10:22 49.90188 20.68632 35063 ft 454 kts 159°
2026-05-04 10:23 49.84270 20.72057 35074 ft 454 kts 160°
2026-05-04 10:25 49.60520 20.85699 35080 ft 456 kts 159°
2026-05-04 10:25 49.54554 20.89105 35085 ft 457 kts 159°
2026-05-04 10:26 49.48588 20.92502 35086 ft 458 kts 159°
2026-05-04 10:26 49.42613 20.95896 35085 ft 458 kts 159°
2026-05-04 10:27 49.36631 20.99284 35097 ft 458 kts 159°
2026-05-04 10:27 49.30609 21.02507 35098 ft 459 kts 163°
2026-05-04 10:28 49.24450 21.05090 35098 ft 459 kts 165°
2026-05-04 10:28 49.18273 21.07558 35095 ft 459 kts 165°
2026-05-04 10:29 49.12101 21.10091 35109 ft 459 kts 164°
2026-05-04 10:29 49.05937 21.12669 35115 ft 459 kts 164°
2026-05-04 10:30 48.99773 21.15258 35126 ft 460 kts 164°
2026-05-04 10:30 48.93636 21.17828 35120 ft 460 kts 164°
2026-05-04 10:31 48.87418 21.20425 35113 ft 460 kts 164°
2026-05-04 10:32 48.65870 21.29364 35132 ft 459 kts 164°
2026-05-04 10:33 48.59708 21.31905 35134 ft 458 kts 164°
2026-05-04 10:33 48.53553 21.34438 35129 ft 458 kts 164°
2026-05-04 10:34 48.47403 21.36961 35125 ft 458 kts 164°
2026-05-04 10:34 48.41258 21.39477 35124 ft 458 kts 164°
2026-05-04 10:35 48.35109 21.41988 35129 ft 458 kts 164°
2026-05-04 10:35 48.28961 21.44492 35130 ft 458 kts 164°
2026-05-04 10:36 48.22812 21.46991 35128 ft 458 kts 164°
2026-05-04 10:36 48.16657 21.49486 35132 ft 458 kts 164°
2026-05-04 10:37 48.10495 21.51977 35122 ft 459 kts 164°
2026-05-04 10:37 48.04332 21.54463 35136 ft 459 kts 164°
2026-05-04 10:39 47.82672 21.63151 35162 ft 461 kts 164°
2026-05-04 10:40 47.76471 21.65622 35140 ft 461 kts 164°
2026-05-04 10:40 47.70275 21.68086 35150 ft 461 kts 164°
2026-05-04 10:41 47.64077 21.70547 35143 ft 461 kts 164°
2026-05-04 10:41 47.57888 21.72998 35155 ft 460 kts 164°
2026-05-04 10:42 47.51707 21.75439 35159 ft 460 kts 164°
2026-05-04 10:42 47.45521 21.77876 35166 ft 460 kts 164°
2026-05-04 10:43 47.39340 21.80306 35150 ft 460 kts 164°
2026-05-04 10:45 47.14709 21.90359 35135 ft 459 kts 162°
2026-05-04 10:45 47.08574 21.93019 35167 ft 460 kts 162°
2026-05-04 10:46 47.02430 21.95669 35161 ft 461 kts 162°
2026-05-04 10:46 46.96276 21.98322 35161 ft 462 kts 162°
2026-05-04 10:47 46.90100 22.00979 35147 ft 463 kts 162°
2026-05-04 10:47 46.83956 22.03617 35154 ft 464 kts 162°
2026-05-04 10:49 46.59115 22.14198 35142 ft 466 kts 162°
2026-05-04 10:50 46.52892 22.16823 35132 ft 465 kts 162°
2026-05-04 10:52 46.28087 22.27239 35131 ft 463 kts 162°
2026-05-04 10:52 46.21899 22.29820 35134 ft 463 kts 162°
2026-05-04 10:54 45.97216 22.40064 35131 ft 462 kts 162°
2026-05-04 10:56 45.72504 22.50226 35129 ft 462 kts 162°
2026-05-04 10:57 45.66332 22.52744 35142 ft 461 kts 162°
2026-05-04 10:57 45.60170 22.55263 35141 ft 460 kts 162°
2026-05-04 10:58 45.54019 22.57767 35125 ft 459 kts 162°
2026-05-04 10:58 45.47880 22.60259 35136 ft 458 kts 162°
2026-05-04 10:59 45.41751 22.62742 35121 ft 457 kts 162°
2026-05-04 10:59 45.35637 22.65213 35132 ft 457 kts 162°
2026-05-04 11:00 45.29527 22.67676 35132 ft 456 kts 162°
2026-05-04 11:02 45.05009 22.77511 35100 ft 460 kts 162°
2026-05-04 11:05 44.58783 22.95788 35089 ft 459 kts 162°
2026-05-04 11:06 44.52628 22.98196 35104 ft 460 kts 162°
2026-05-04 11:06 44.46467 23.00603 35105 ft 461 kts 162°
2026-05-04 11:10 44.04467 23.16884 35136 ft 453 kts 162°
2026-05-04 11:12 43.80198 23.26164 35115 ft 452 kts 162°
2026-05-04 11:12 43.74118 23.28396 35123 ft 452 kts 162°
2026-05-04 11:13 43.68032 23.30615 35134 ft 453 kts 163°
2026-05-04 11:13 43.61931 23.32845 35125 ft 454 kts 163°
2026-05-04 11:14 43.55825 23.35077 35127 ft 454 kts 163°
2026-05-04 11:16 43.31426 23.43953 35139 ft 453 kts 163°
2026-05-04 11:16 43.25331 23.46156 35135 ft 452 kts 163°
2026-05-04 11:17 43.19261 23.48357 35131 ft 451 kts 163°
2026-05-04 11:19 42.95120 23.57017 35134 ft 445 kts 163°
2026-05-04 11:19 42.89143 23.59155 35136 ft 443 kts 163°
2026-05-04 11:20 42.83186 23.61281 35138 ft 442 kts 163°
2026-05-04 11:20 42.77228 23.63406 35149 ft 443 kts 163°
2026-05-04 11:22 42.53319 23.72007 35136 ft 445 kts 161°
2026-05-04 11:23 42.47401 23.74488 35134 ft 445 kts 161°
2026-05-04 11:25 42.26791 23.83014 35113 ft 440 kts 161°
2026-05-04 11:25 42.20952 23.85418 35111 ft 438 kts 161°